Location: *
(49.9853°N, 3.5569°E)
Time: 15:40:07
(UTC+00:00)

Cosmos 2219 - Pass Details

Date: 22 September 2019
Orbit: 834 x 860 km, 71.1° (Epoch: 14 October)

Event Time Altitude Azimuth Distance (km) Brightness Sun altitude
Rises 19:51:44 0° 228° (SW) 3,427 6.6 -20.5°
Reaches altitude 10° 19:54:17 10° 235° (SW) 2,494 6.0 -20.9°
Maximum altitude 19:59:47 46° 308° (NW) 1,150 4.3 -21.7°
Drops below altitude 10° 20:05:18 10° 21° (NNE) 2,500 5.7 -22.4°
Sets 20:07:53 0° 27° (NNE) 3,437 6.4 -22.8°
